| time (UTC) | temp F | wind direction | speed MPH | gust MPH | rain 1hr in | rain 24hr in | rain mn in | humidity % | barometer mb |
| 20260507022630 | 63 | 5 | 4.0 | 8.0 | 0.00 | 0.00 | 0.00 | 78 | 1013.7 |
| 20260507022155 | 63 | 360 | 5.0 | 8.0 | 0.00 | 0.00 | 0.00 | 78 | 1014.0 |
| 20260507021708 | 63 | 5 | 4.0 | 7.0 | 0.00 | 0.00 | 0.00 | 78 | 1013.8 |
| 20260507021132 | 63 | 5 | 3.0 | 7.0 | 0.00 | 0.00 | 0.00 | 78 | 1013.4 |
| 20260507020706 | 63 | 30 | 1.0 | 6.0 | 0.00 | 0.00 | 0.00 | 78 | 1013.4 |
| 20260507020134 | 63 | 53 | 4.0 | 8.0 | 0.00 | 0.00 | 0.00 | 78 | 1013.2 |
| 20260507015708 | 63 | 347 | 3.0 | 10.0 | 0.00 | 0.00 | 0.00 | 78 | 1013.2 |
| 20260507015132 | 63 | 32 | 6.0 | 11.0 | 0.00 | 0.00 | 0.00 | 78 | 1013.2 |
| 20260507014706 | 63 | 19 | 8.0 | 11.0 | 0.00 | 0.00 | 0.00 | 78 | 1013.2 |
| 20260507014210 | 63 | 355 | 2.0 | 8.0 | 0.00 | 0.00 | 0.00 | 77 | 1013.2 |
| 20260507013642 | 63 | 16 | 4.0 | 8.0 | 0.00 | 0.00 | 0.00 | 77 | 1012.9 |
| 20260507013204 | 64 | 24 | 5.0 | 13.0 | 0.00 | 0.00 | 0.00 | 77 | 1012.9 |
| 20260507012638 | 64 | 338 | 8.0 | 13.0 | 0.00 | 0.00 | 0.00 | 77 | 1012.9 |
| 20260507012139 | 64 | 346 | 7.0 | 14.0 | 0.00 | 0.00 | 0.00 | 77 | 1012.7 |
| 20260507011646 | 64 | 24 | 8.0 | 14.0 | 0.00 | 0.00 | 0.00 | 76 | 1012.7 |
| 20260507010647 | 64 | 347 | 5.0 | 10.0 | 0.00 | 0.00 | 0.00 | 76 | 1012.5 |
| 20260507010208 | 64 | 42 | 6.0 | 13.0 | 0.00 | 0.00 | 0.00 | 76 | 1012.5 |
| 20260507005640 | 64 | 13 | 7.0 | 13.0 | 0.00 | 0.00 | 0.00 | 76 | 1012.5 |
| 20260507005144 | 64 | 12 | 3.0 | 9.0 | 0.00 | 0.00 | 0.00 | 76 | 1012.1 |
| 20260507004646 | 64 | 19 | 5.0 | 10.0 | 0.00 | 0.00 | 0.00 | 76 | 1012.3 |
| 20260507004158 | 64 | 48 | 5.0 | 12.0 | 0.00 | 0.00 | 0.00 | 76 | 1012.5 |
| 20260507003724 | 64 | 355 | 6.0 | 12.0 | 0.00 | 0.00 | 0.00 | 75 | 1012.4 |
| 20260507003134 | 65 | 51 | 7.0 | 12.0 | 0.00 | 0.00 | 0.00 | 75 | 1012.2 |
| 20260507002636 | 65 | 38 | 7.0 | 11.0 | 0.00 | 0.00 | 0.00 | 75 | 1012.0 |
| 20260507002148 | 65 | 31 | 7.0 | 11.0 | 0.00 | 0.00 | 0.00 | 75 | 1011.8 |
| 20260507001653 | 65 | 10 | 6.0 | 11.0 | 0.00 | 0.00 | 0.00 | 75 | 1012.1 |
| 20260507001203 | 65 | 29 | 7.0 | 13.0 | 0.00 | 0.00 | 0.00 | 75 | 1012.2 |
| 20260507000627 | 65 | 11 | 8.0 | 13.0 | 0.00 | 0.00 | 0.00 | 74 | 1012.2 |
| 20260507000152 | 66 | 350 | 8.0 | 13.0 | 0.00 | 0.00 | 0.00 | 73 | 1012.0 |
| 20260506235644 | 66 | 329 | 9.0 | 12.0 | 0.00 | 0.00 | 0.00 | 74 | 1011.9 |
| 20260506235203 | 66 | 330 | 8.0 | 13.0 | 0.00 | 0.00 | 0.00 | 73 | 1011.8 |
| 20260506234617 | 66 | 11 | 8.0 | 14.0 | 0.00 | 0.00 | 0.00 | 73 | 1011.8 |
| 20260506234142 | 67 | 40 | 8.0 | 15.0 | 0.00 | 0.00 | 0.00 | 73 | 1011.4 |
| 20260506233653 | 67 | 355 | 7.0 | 15.0 | 0.00 | 0.00 | 0.00 | 73 | 1011.4 |
| 20260506233158 | 67 | 355 | 8.0 | 13.0 | 0.00 | 0.00 | 0.00 | 72 | 1011.2 |
| 20260506232712 | 68 | 20 | 6.0 | 12.0 | 0.00 | 0.00 | 0.00 | 72 | 1011.2 |
| 20260506232137 | 68 | 28 | 6.0 | 13.0 | 0.00 | 0.00 | 0.00 | 72 | 1011.2 |
| 20260506231703 | 68 | 355 | 8.0 | 12.0 | 0.00 | 0.00 | 0.00 | 71 | 1011.2 |
| 20260506231135 | 68 | 355 | 6.0 | 9.0 | 0.00 | 0.00 | 0.00 | 72 | 1011.3 |
| 20260506230659 | 68 | 59 | 6.0 | 10.0 | 0.00 | 0.00 | 0.00 | 72 | 1011.1 |
| 20260506230128 | 68 | 355 | 6.0 | 10.0 | 0.00 | 0.00 | 0.00 | 72 | 1011.1 |
| 20260506225632 | 68 | 18 | 6.0 | 14.0 | 0.00 | 0.00 | 0.00 | 72 | 1011.1 |
| 20260506225135 | 68 | 348 | 8.0 | 15.0 | 0.00 | 0.00 | 0.00 | 72 | 1011.1 |
| 20260506224707 | 68 | 13 | 9.0 | 15.0 | 0.00 | 0.00 | 0.00 | 72 | 1011.1 |
| 20260506224134 | 68 | 34 | 9.0 | 15.0 | 0.00 | 0.00 | 0.00 | 71 | 1011.2 |
| 20260506223708 | 68 | 9 | 9.0 | 14.0 | 0.00 | 0.00 | 0.00 | 71 | 1011.1 |
| 20260506223133 | 69 | 18 | 8.0 | 14.0 | 0.00 | 0.00 | 0.00 | 69 | 1011.1 |
| 20260506222706 | 70 | 23 | 7.0 | 15.0 | 0.00 | 0.00 | 0.00 | 69 | 1011.1 |
| 20260506222132 | 70 | 355 | 9.0 | 15.0 | 0.00 | 0.00 | 0.00 | 68 | 1010.8 |
| 20260506221635 | 71 | 355 | 7.0 | 13.0 | 0.00 | 0.00 | 0.00 | 69 | 1010.7 |
| 20260506221203 | 71 | 355 | 9.0 | 16.0 | 0.00 | 0.00 | 0.00 | 67 | 1010.7 |
| 20260506220629 | 72 | 331 | 11.0 | 16.0 | 0.00 | 0.00 | 0.00 | 66 | 1010.6 |
| 20260506220202 | 73 | 348 | 7.0 | 18.0 | 0.00 | 0.00 | 0.00 | 66 | 1010.6 |
| 20260506215708 | 74 | 32 | 9.0 | 18.0 | 0.00 | 0.00 | 0.00 | 65 | 1010.6 |
| 20260506215145 | 74 | 25 | 7.0 | 14.0 | 0.00 | 0.00 | 0.00 | 66 | 1010.4 |
| 20260506214710 | 74 | 42 | 8.0 | 14.0 | 0.00 | 0.00 | 0.00 | 66 | 1010.4 |
| 20260506214134 | 75 | 17 | 6.0 | 13.0 | 0.00 | 0.00 | 0.00 | 66 | 1010.6 |
| 20260506213648 | 75 | 326 | 7.0 | 13.0 | 0.00 | 0.00 | 0.00 | 66 | 1010.5 |
| 20260506213153 | 75 | 10 | 8.0 | 14.0 | 0.00 | 0.00 | 0.00 | 66 | 1010.4 |
| 20260506212727 | 75 | 34 | 6.0 | 13.0 | 0.00 | 0.00 | 0.00 | 67 | 1010.4 |
| 20260506212130 | 75 | 26 | 8.0 | 13.0 | 0.00 | 0.00 | 0.00 | 67 | 1010.3 |
| 20260506211654 | 75 | 33 | 8.0 | 13.0 | 0.00 | 0.00 | 0.00 | 66 | 1010.2 |
| 20260506211123 | 75 | 61 | 9.0 | 12.0 | 0.00 | 0.00 | 0.00 | 67 | 1010.3 |
| 20260506210650 | 75 | 53 | 5.0 | 12.0 | 0.00 | 0.00 | 0.00 | 68 | 1010.4 |
| 20260506210126 | 75 | 355 | 7.0 | 13.0 | 0.00 | 0.00 | 0.00 | 68 | 1010.4 |
| 20260506205650 | 75 | 17 | 7.0 | 13.0 | 0.00 | 0.00 | 0.00 | 68 | 1010.3 |
| 20260506205123 | 75 | 13 | 9.0 | 14.0 | 0.00 | 0.00 | 0.00 | 67 | 1010.4 |
| 20260506204649 | 76 | 26 | 7.0 | 12.0 | 0.00 | 0.00 | 0.00 | 68 | 1010.3 |
| 20260506204221 | 75 | 346 | 7.0 | 12.0 | 0.00 | 0.00 | 0.00 | 67 | 1010.2 |
| 20260506203704 | 76 | 49 | 9.0 | 12.0 | 0.00 | 0.00 | 0.00 | 67 | 1010.3 |
| 20260506203136 | 76 | 21 | 6.0 | 12.0 | 0.00 | 0.00 | 0.00 | 69 | 1010.2 |
| 20260506202702 | 76 | 32 | 6.0 | 16.0 | 0.00 | 0.00 | 0.00 | 70 | 1010.2 |
| 20260506202132 | 75 | 27 | 10.0 | 16.0 | 0.00 | 0.00 | 0.00 | 70 | 1010.1 |
| 20260506201656 | 75 | 5 | 9.0 | 18.0 | 0.00 | 0.00 | 0.00 | 70 | 1010.1 |
| 20260506201209 | 76 | 28 | 8.0 | 18.0 | 0.00 | 0.00 | 0.00 | 69 | 1010.3 |
| 20260506200638 | 76 | 42 | 10.0 | 16.0 | 0.00 | 0.00 | 0.00 | 67 | 1010.4 |
| 20260506200203 | 78 | 5 | 10.0 | 20.0 | 0.00 | 0.00 | 0.00 | 64 | 1010.5 |
| 20260506195636 | 80 | 37 | 8.0 | 20.0 | 0.00 | 0.00 | 0.00 | 62 | 1010.5 |
| 20260506195202 | 82 | 34 | 5.0 | 8.0 | 0.00 | 0.00 | 0.00 | 64 | 1010.2 |
| 20260506194614 | 82 | 61 | 4.0 | 9.0 | 0.00 | 0.00 | 0.00 | 64 | 1010.1 |
| 20260506194140 | 83 | 13 | 3.0 | 8.0 | 0.00 | 0.00 | 0.00 | 63 | 1010.0 |
| 20260506193613 | 83 | 53 | 4.0 | 7.0 | 0.00 | 0.00 | 0.00 | 62 | 1009.9 |
| 20260506193139 | 84 | 66 | 2.0 | 8.0 | 0.00 | 0.00 | 0.00 | 62 | 1009.8 |
| 20260506192616 | 84 | 111 | 1.0 | 8.0 | 0.00 | 0.00 | 0.00 | 61 | 1009.8 |
| 20260506192141 | 84 | 136 | 1.0 | 9.0 | 0.00 | 0.00 | 0.00 | 61 | 1009.9 |
| 20260506191653 | 84 | 261 | 2.0 | 9.0 | 0.00 | 0.00 | 0.00 | 60 | 1010.0 |
| 20260506191117 | 84 | 184 | 5.0 | 7.0 | 0.00 | 0.00 | 0.00 | 61 | 1009.9 |
| 20260506190145 | 83 | 94 | 2.0 | 10.0 | 0.00 | 0.00 | 0.00 | 62 | 1010.1 |
| 20260506185649 | 83 | 142 | 5.0 | 10.0 | 0.00 | 0.00 | 0.00 | 61 | 1010.2 |
| 20260506185121 | 83 | 278 | 1.0 | 5.0 | 0.00 | 0.00 | 0.00 | 64 | 1010.3 |
| 20260506184646 | 82 | 148 | 1.0 | 8.0 | 0.00 | 0.00 | 0.00 | 64 | 1010.3 |
| 20260506184119 | 82 | 169 | 4.0 | 8.0 | 0.00 | 0.00 | 0.00 | 64 | 1010.3 |
| 20260506183642 | 82 | 132 | 3.0 | 7.0 | 0.00 | 0.00 | 0.00 | 65 | 1010.4 |
| 20260506183120 | 81 | 128 | 2.0 | 7.0 | 0.00 | 0.00 | 0.00 | 66 | 1010.4 |
| 20260506182646 | 81 | 147 | 4.0 | 9.0 | 0.00 | 0.00 | 0.00 | 66 | 1010.4 |
| 20260506182118 | 80 | 94 | 5.0 | 10.0 | 0.00 | 0.00 | 0.00 | 67 | 1010.5 |
| 20260506181644 | 80 | 37 | 3.0 | 7.0 | 0.00 | 0.00 | 0.00 | 69 | 1010.7 |
| 20260506181215 | 79 | 344 | 2.0 | 6.0 | 0.00 | 0.00 | 0.00 | 69 | 1010.6 |
| 20260506180619 | 79 | 140 | 2.0 | 8.0 | 0.00 | 0.00 | 0.00 | 71 | 1010.7 |
| 20260506180144 | 79 | 80 | 3.0 | 9.0 | 0.00 | 0.00 | 0.00 | 71 | 1010.7 |
| 20260506175617 | 78 | 117 | 2.0 | 9.0 | 0.00 | 0.00 | 0.00 | 72 | 1010.7 |
| 20260506175143 | 78 | 41 | 4.0 | 8.0 | 0.00 | 0.00 | 0.00 | 72 | 1010.8 |
| 20260506174620 | 77 | 76 | 2.0 | 9.0 | 0.00 | 0.00 | 0.00 | 73 | 1010.8 |
| 20260506174146 | 77 | 77 | 2.0 | 7.0 | 0.00 | 0.00 | 0.00 | 75 | 1010.9 |
| 20260506173617 | 75 | 76 | 1.0 | 9.0 | 0.00 | 0.00 | 0.00 | 75 | 1010.9 |
| 20260506173142 | 75 | 36 | 5.0 | 9.0 | 0.00 | 0.00 | 0.00 | 75 | 1010.9 |
| 20260506172716 | 74 | 52 | 4.0 | 9.0 | 0.00 | 0.00 | 0.00 | 76 | 1010.9 |
| 20260506172221 | 74 | 25 | 3.0 | 9.0 | 0.00 | 0.00 | 0.00 | 76 | 1011.0 |
| 20260506171733 | 73 | 37 | 3.0 | 9.0 | 0.00 | 0.00 | 0.00 | 76 | 1011.2 |
| 20260506171137 | 73 | 34 | 5.0 | 9.0 | 0.00 | 0.00 | 0.00 | 76 | 1011.3 |
| 20260506170650 | 73 | 51 | 4.0 | 11.0 | 0.00 | 0.00 | 0.00 | 75 | 1011.3 |
| 20260506170116 | 73 | 41 | 7.0 | 11.0 | 0.00 | 0.00 | 0.00 | 76 | 1011.4 |
| 20260506165642 | 74 | 49 | 7.0 | 12.0 | 0.00 | 0.00 | 0.00 | 75 | 1011.4 |
| 20260506165155 | 74 | 46 | 5.0 | 12.0 | 0.00 | 0.00 | 0.00 | 75 | 1011.4 |
| 20260506164620 | 75 | 38 | 5.0 | 14.0 | 0.00 | 0.00 | 0.00 | 75 | 1011.4 |
| 20260506164153 | 77 | 32 | 10.0 | 14.0 | 0.00 | 0.00 | 0.00 | 74 | 1011.4 |
| 20260506163620 | 77 | 98 | 3.0 | 7.0 | 0.00 | 0.00 | 0.00 | 78 | 1011.1 |
| 20260506163151 | 77 | 93 | 4.0 | 10.0 | 0.00 | 0.00 | 0.00 | 78 | 1011.1 |
| 20260506162716 | 77 | 76 | 5.0 | 10.0 | 0.00 | 0.00 | 0.00 | 78 | 1011.1 |
| 20260506162229 | 77 | 80 | 5.0 | 9.0 | 0.00 | 0.00 | 0.00 | 78 | 1011.1 |
| 20260506161634 | 77 | 42 | 6.0 | 8.0 | 0.00 | 0.00 | 0.00 | 79 | 1011.1 |
| 20260506161140 | 77 | 40 | 5.0 | 9.0 | 0.00 | 0.00 | 0.00 | 79 | 1011.1 |
| 20260506160652 | 77 | 78 | 4.0 | 9.0 | 0.00 | 0.00 | 0.00 | 80 | 1011.0 |
| 20260506160117 | 77 | 112 | 4.0 | 9.0 | 0.00 | 0.00 | 0.00 | 81 | 1011.0 |
| 20260506155651 | 77 | 103 | 3.0 | 7.0 | 0.00 | 0.00 | 0.00 | 81 | 1011.0 |
| 20260506155116 | 77 | 53 | 4.0 | 7.0 | 0.00 | 0.00 | 0.00 | 82 | 1011.0 |
| 20260506154650 | 76 | 95 | 4.0 | 7.0 | 0.00 | 0.00 | 0.00 | 83 | 1011.0 |
| 20260506154120 | 76 | 86 | 2.0 | 5.0 | 0.00 | 0.00 | 0.00 | 83 | 1011.0 |
| 20260506153645 | 76 | 51 | 2.0 | 5.0 | 0.00 | 0.00 | 0.00 | 84 | 1010.9 |
| 20260506153118 | 76 | 104 | 2.0 | 4.0 | 0.00 | 0.00 | 0.00 | 85 | 1010.8 |
| 20260506152643 | 76 | 88 | 2.0 | 4.0 | 0.00 | 0.00 | 0.00 | 85 | 1010.8 |
| 20260506152115 | 76 | 130 | 0.0 | 5.0 | 0.00 | 0.00 | 0.00 | 86 | 1010.5 |
| 20260506151642 | 75 | 142 | 2.0 | 5.0 | 0.00 | 0.00 | 0.00 | 86 | 1010.4 |
| 20260506151154 | 75 | 123 | 0.0 | 4.0 | 0.00 | 0.00 | 0.00 | 86 | 1010.4 |
| 20260506150620 | 75 | 123 | 1.0 | 4.0 | 0.00 | 0.00 | 0.00 | 86 | 1010.2 |
| 20260506150154 | 75 | 154 | 2.0 | 4.0 | 0.00 | 0.00 | 0.00 | 87 | 1010.2 |
| 20260506145618 | 75 | 138 | 0.0 | 4.0 | 0.00 | 0.00 | 0.00 | 87 | 1010.2 |
| 20260506145144 | 75 | 165 | 1.0 | 4.0 | 0.00 | 0.00 | 0.00 | 87 | 1010.2 |
| 20260506144654 | 75 | 135 | 2.0 | 4.0 | 0.00 | 0.00 | 0.00 | 87 | 1010.1 |
| 20260506144218 | 75 | 146 | 2.0 | 4.0 | 0.00 | 0.00 | 0.00 | 87 | 1010.0 |
| 20260506143708 | 75 | 148 | 1.0 | 2.0 | 0.00 | 0.00 | 0.00 | 87 | 1010.1 |
| 20260506143133 | 75 | 116 | 1.0 | 2.0 | 0.00 | 0.00 | 0.00 | 87 | 1010.2 |
| 20260506142707 | 75 | 129 | 1.0 | 2.0 | 0.00 | 0.00 | 0.00 | 87 | 1010.3 |
| 20260506142232 | 75 | 128 | 0.0 | 1.0 | 0.00 | 0.00 | 0.00 | 87 | 1010.3 |
| 20260506141643 | 75 | 129 | 0.0 | 4.0 | 0.00 | 0.00 | 0.00 | 87 | 1010.2 |
| 20260506141206 | 75 | 128 | 1.0 | 4.0 | 0.00 | 0.00 | 0.00 | 87 | 1010.3 |
| 20260506140639 | 75 | 88 | 2.0 | 5.0 | 0.00 | 0.00 | 0.00 | 87 | 1010.1 |
| 20260506140146 | 75 | 117 | 2.0 | 5.0 | 0.00 | 0.00 | 0.00 | 87 | 1009.8 |
| 20260506135615 | 75 | 113 | 1.0 | 5.0 | 0.00 | 0.00 | 0.00 | 87 | 1009.7 |
| 20260506135149 | 75 | 112 | 2.0 | 6.0 | 0.00 | 0.00 | 0.00 | 87 | 1009.4 |
| 20260506134615 | 75 | 115 | 3.0 | 6.0 | 0.00 | 0.00 | 0.00 | 87 | 1009.2 |
| 20260506134142 | 75 | 121 | 2.0 | 6.0 | 0.00 | 0.00 | 0.00 | 87 | 1009.1 |
| 20260506133634 | 75 | 118 | 3.0 | 6.0 | 0.00 | 0.00 | 0.00 | 87 | 1009.0 |
| 20260506133157 | 75 | 148 | 2.0 | 7.0 | 0.00 | 0.00 | 0.00 | 87 | 1008.9 |
| 20260506132710 | 75 | 146 | 3.0 | 7.0 | 0.00 | 0.00 | 0.00 | 87 | 1008.8 |
| 20260506132132 | 75 | 128 | 2.0 | 5.0 | 0.00 | 0.00 | 0.00 | 87 | 1008.8 |
| 20260506131137 | 75 | 128 | 4.0 | 7.0 | 0.00 | 0.00 | 0.00 | 87 | 1008.8 |
| 20260506130704 | 75 | 115 | 3.0 | 6.0 | 0.00 | 0.00 | 0.00 | 87 | 1008.8 |
| 20260506130139 | 75 | 90 | 2.0 | 6.0 | 0.00 | 0.00 | 0.00 | 87 | 1008.7 |
| 20260506125708 | 74 | 93 | 2.0 | 6.0 | 0.00 | 0.00 | 0.00 | 87 | 1008.7 |
| 20260506125138 | 74 | 131 | 4.0 | 6.0 | 0.00 | 0.00 | 0.00 | 87 | 1008.5 |
| 20260506124703 | 74 | 146 | 3.0 | 7.0 | 0.00 | 0.00 | 0.00 | 87 | 1008.5 |
| 20260506124134 | 74 | 111 | 4.0 | 8.0 | 0.00 | 0.00 | 0.00 | 87 | 1008.5 |
| 20260506123701 | 74 | 109 | 3.0 | 7.0 | 0.00 | 0.00 | 0.00 | 87 | 1008.5 |
| 20260506123124 | 74 | 122 | 3.0 | 5.0 | 0.00 | 0.00 | 0.00 | 87 | 1008.5 |
| 20260506122656 | 74 | 134 | 3.0 | 6.0 | 0.00 | 0.00 | 0.00 | 87 | 1008.5 |
| 20260506122158 | 74 | 135 | 4.0 | 6.0 | 0.00 | 0.00 | 0.00 | 87 | 1008.5 |
| 20260506121630 | 74 | 122 | 4.0 | 5.0 | 0.00 | 0.00 | 0.00 | 87 | 1008.4 |
| 20260506121154 | 74 | 142 | 2.0 | 4.0 | 0.00 | 0.00 | 0.00 | 87 | 1008.5 |
| 20260506120631 | 74 | 157 | 2.0 | 3.0 | 0.00 | 0.00 | 0.00 | 87 | 1008.5 |
| 20260506120157 | 74 | 144 | 2.0 | 5.0 | 0.00 | 0.00 | 0.00 | 87 | 1008.5 |
| 20260506115711 | 74 | 145 | 2.0 | 5.0 | 0.00 | 0.00 | 0.00 | 87 | 1008.5 |
| 20260506115137 | 74 | 167 | 2.0 | 3.0 | 0.00 | 0.00 | 0.00 | 87 | 1008.5 |
| 20260506114711 | 74 | 141 | 1.0 | 4.0 | 0.00 | 0.00 | 0.00 | 87 | 1008.4 |
| 20260506114135 | 74 | 140 | 1.0 | 4.0 | 0.00 | 0.00 | 0.00 | 86 | 1008.5 |
| 20260506113700 | 74 | 204 | 0.0 | 0.0 | 0.00 | 0.00 | 0.00 | 86 | 1008.5 |
| 20260506113130 | 74 | 205 | 0.0 | 0.0 | 0.00 | 0.00 | 0.00 | 86 | 1008.5 |
| 20260506112655 | 74 | 204 | 0.0 | 0.0 | 0.00 | 0.00 | 0.00 | 86 | 1008.5 |
| 20260506112133 | 74 | 204 | 0.0 | 0.0 | 0.00 | 0.00 | 0.00 | 86 | 1008.5 |
| 20260506111650 | 74 | 205 | 0.0 | 0.0 | 0.00 | 0.00 | 0.00 | 86 | 1008.5 |
| 20260506111140 | 74 | 205 | 0.0 | 0.0 | 0.00 | 0.00 | 0.00 | 86 | 1008.5 |
| 20260506110706 | 74 | 204 | 0.0 | 0.0 | 0.00 | 0.00 | 0.00 | 86 | 1008.5 |
| 20260506110139 | 74 | 205 | 0.0 | 2.0 | 0.00 | 0.00 | 0.00 | 86 | 1008.5 |
| 20260506105645 | 74 | 175 | 0.0 | 2.0 | 0.00 | 0.00 | 0.00 | 86 | 1008.5 |
| 20260506105205 | 74 | 175 | 1.0 | 2.0 | 0.00 | 0.00 | 0.00 | 86 | 1008.5 |
| 20260506104617 | 74 | 195 | 1.0 | 5.0 | 0.00 | 0.00 | 0.00 | 86 | 1008.3 |
| 20260506104122 | 74 | 160 | 1.0 | 5.0 | 0.00 | 0.00 | 0.00 | 86 | 1008.3 |
| 20260506103652 | 74 | 151 | 2.0 | 5.0 | 0.00 | 0.00 | 0.00 | 86 | 1008.2 |
| 20260506103156 | 74 | 196 | 3.0 | 8.0 | 0.00 | 0.00 | 0.00 | 86 | 1008.2 |
| 20260506102621 | 75 | 182 | 3.0 | 7.0 | 0.00 | 0.00 | 0.00 | 86 | 1008.2 |
| 20260506102155 | 75 | 182 | 3.0 | 7.0 | 0.00 | 0.00 | 0.00 | 86 | 1008.3 |
| 20260506101624 | 75 | 188 | 4.0 | 9.0 | 0.00 | 0.00 | 0.00 | 86 | 1008.3 |
| 20260506101159 | 75 | 182 | 5.0 | 10.0 | 0.00 | 0.00 | 0.00 | 86 | 1008.3 |
| 20260506100703 | 75 | 173 | 6.0 | 10.0 | 0.00 | 0.00 | 0.00 | 86 | 1008.3 |
| 20260506100124 | 75 | 204 | 5.0 | 10.0 | 0.00 | 0.00 | 0.00 | 85 | 1008.2 |
| 20260506095650 | 75 | 196 | 6.0 | 10.0 | 0.00 | 0.00 | 0.00 | 85 | 1008.2 |
| 20260506095140 | 75 | 216 | 3.0 | 11.0 | 0.00 | 0.00 | 0.00 | 85 | 1008.2 |
| 20260506094706 | 75 | 223 | 5.0 | 11.0 | 0.00 | 0.00 | 0.00 | 85 | 1008.1 |
| 20260506094131 | 75 | 186 | 6.0 | 10.0 | 0.00 | 0.00 | 0.00 | 85 | 1008.2 |
| 20260506093704 | 75 | 165 | 5.0 | 10.0 | 0.00 | 0.00 | 0.00 | 85 | 1008.1 |
| 20260506093128 | 75 | 194 | 4.0 | 10.0 | 0.00 | 0.00 | 0.00 | 85 | 1008.1 |
| 20260506092701 | 75 | 212 | 4.0 | 9.0 | 0.00 | 0.00 | 0.00 | 85 | 1008.2 |
| 20260506092128 | 75 | 198 | 4.0 | 8.0 | 0.00 | 0.00 | 0.00 | 85 | 1008.1 |
| 20260506091701 | 75 | 187 | 3.0 | 10.0 | 0.00 | 0.00 | 0.00 | 85 | 1008.0 |
| 20260506091229 | 75 | 186 | 6.0 | 10.0 | 0.00 | 0.00 | 0.00 | 85 | 1008.0 |
| 20260506090641 | 75 | 165 | 6.0 | 11.0 | 0.00 | 0.00 | 0.00 | 85 | 1008.0 |
| 20260506090126 | 75 | 196 | 7.0 | 11.0 | 0.00 | 0.00 | 0.00 | 85 | 1008.0 |
| 20260506085651 | 75 | 146 | 5.0 | 9.0 | 0.00 | 0.00 | 0.00 | 85 | 1008.0 |
| 20260506085225 | 75 | 161 | 4.0 | 8.0 | 0.00 | 0.00 | 0.00 | 85 | 1007.9 |
| 20260506084629 | 75 | 175 | 3.0 | 8.0 | 0.00 | 0.00 | 0.00 | 85 | 1008.0 |
| 20260506084155 | 75 | 157 | 5.0 | 11.0 | 0.00 | 0.00 | 0.00 | 85 | 1007.9 |
| 20260506083643 | 75 | 175 | 7.0 | 15.0 | 0.00 | 0.00 | 0.00 | 85 | 1007.9 |
| 20260506083205 | 75 | 158 | 8.0 | 15.0 | 0.00 | 0.00 | 0.00 | 85 | 1007.9 |
| 20260506082631 | 75 | 168 | 6.0 | 14.0 | 0.00 | 0.00 | 0.00 | 85 | 1007.8 |
| 20260506082204 | 75 | 205 | 7.0 | 14.0 | 0.00 | 0.00 | 0.00 | 85 | 1007.8 |
| 20260506081630 | 75 | 177 | 6.0 | 13.0 | 0.00 | 0.00 | 0.00 | 85 | 1007.9 |
| 20260506081202 | 75 | 137 | 4.0 | 13.0 | 0.00 | 0.00 | 0.00 | 85 | 1008.0 |
| 20260506080629 | 75 | 161 | 8.0 | 14.0 | 0.00 | 0.00 | 0.00 | 85 | 1008.0 |
| 20260506080201 | 75 | 174 | 8.0 | 14.0 | 0.00 | 0.00 | 0.00 | 85 | 1008.0 |
| 20260506073145 | 75 | 160 | 6.0 | 12.0 | 0.00 | 0.00 | 0.00 | 85 | 1008.2 |
| 20260506072614 | 75 | 142 | 7.0 | 11.0 | 0.00 | 0.00 | 0.00 | 85 | 1008.2 |
| 20260506072145 | 75 | 167 | 5.0 | 11.0 | 0.00 | 0.00 | 0.00 | 85 | 1008.3 |
| 20260506071712 | 75 | 198 | 4.0 | 11.0 | 0.00 | 0.00 | 0.00 | 85 | 1008.4 |
| 20260506071116 | 75 | 171 | 6.0 | 9.0 | 0.00 | 0.00 | 0.00 | 85 | 1008.4 |
| 20260506070651 | 75 | 169 | 5.0 | 11.0 | 0.00 | 0.00 | 0.00 | 85 | 1008.5 |
| 20260506070117 | 75 | 149 | 5.0 | 11.0 | 0.00 | 0.00 | 0.00 | 85 | 1008.6 |
| 20260506062131 | 75 | 157 | 7.0 | 15.0 | 0.00 | 0.00 | 0.00 | 84 | 1008.6 |
| 20260506061629 | 75 | 147 | 6.0 | 9.0 | 0.00 | 0.00 | 0.00 | 84 | 1008.7 |
| 20260506061132 | 76 | 167 | 5.0 | 10.0 | 0.00 | 0.00 | 0.00 | 84 | 1008.6 |
| 20260506060638 | 76 | 169 | 6.0 | 13.0 | 0.00 | 0.00 | 0.00 | 84 | 1008.6 |
| 20260506060132 | 76 | 155 | 6.0 | 13.0 | 0.00 | 0.00 | 0.00 | 84 | 1008.7 |
| 20260506051128 | 76 | 167 | 4.0 | 11.0 | 0.00 | 0.00 | 0.00 | 83 | 1008.5 |
| 20260506050649 | 76 | 151 | 6.0 | 11.0 | 0.00 | 0.00 | 0.00 | 83 | 1008.5 |
| 20260506045117 | 77 | 148 | 6.0 | 10.0 | 0.00 | 0.00 | 0.00 | 83 | 1008.5 |
| 20260506044651 | 77 | 131 | 5.0 | 10.0 | 0.00 | 0.00 | 0.00 | 83 | 1008.5 |
| 20260506044134 | 77 | 136 | 7.0 | 11.0 | 0.00 | 0.00 | 0.00 | 83 | 1008.4 |
| 20260506043645 | 77 | 140 | 7.0 | 11.0 | 0.00 | 0.00 | 0.00 | 83 | 1008.4 |
| 20260506043113 | 77 | 186 | 5.0 | 11.0 | 0.00 | 0.00 | 0.00 | 83 | 1008.5 |
| 20260506042644 | 77 | 164 | 5.0 | 12.0 | 0.00 | 0.00 | 0.00 | 82 | 1008.5 |
| 20260506042210 | 77 | 134 | 6.0 | 12.0 | 0.00 | 0.00 | 0.00 | 82 | 1008.3 |
| 20260506041642 | 77 | 140 | 6.0 | 10.0 | 0.00 | 0.00 | 0.00 | 82 | 1008.3 |
| 20260506041208 | 77 | 170 | 6.0 | 12.0 | 0.00 | 0.00 | 0.00 | 82 | 1008.3 |
| 20260506040638 | 77 | 139 | 7.0 | 12.0 | 0.00 | 0.00 | 0.00 | 82 | 1008.3 |
| 20260506040203 | 77 | 146 | 7.0 | 11.0 | 0.00 | 0.00 | 0.00 | 82 | 1008.1 |
| 20260506035628 | 77 | 151 | 4.0 | 9.0 | 0.00 | 0.00 | 0.00 | 82 | 1008.1 |
| 20260506035159 | 77 | 128 | 3.0 | 6.0 | 0.00 | 0.00 | 0.00 | 81 | 1008.1 |
| 20260506034628 | 77 | 125 | 3.0 | 6.0 | 0.00 | 0.00 | 0.00 | 81 | 1008.0 |
| 20260506034158 | 77 | 126 | 3.0 | 6.0 | 0.00 | 0.00 | 0.00 | 81 | 1007.9 |
| 20260506033624 | 77 | 159 | 3.0 | 6.0 | 0.00 | 0.00 | 0.00 | 81 | 1007.8 |
| 20260506033158 | 77 | 145 | 3.0 | 6.0 | 0.00 | 0.00 | 0.00 | 81 | 1007.9 |
| 20260506032623 | 77 | 140 | 4.0 | 6.0 | 0.00 | 0.00 | 0.00 | 80 | 1007.8 |
| 20260506032135 | 77 | 129 | 3.0 | 8.0 | 0.00 | 0.00 | 0.00 | 80 | 1007.7 |
| 20260506031701 | 77 | 115 | 3.0 | 8.0 | 0.00 | 0.00 | 0.00 | 80 | 1007.5 |
| 20260506031134 | 77 | 159 | 4.0 | 7.0 | 0.00 | 0.00 | 0.00 | 79 | 1007.5 |
| 20260506030618 | 78 | 158 | 4.0 | 7.0 | 0.00 | 0.00 | 0.00 | 79 | 1007.4 |
| 20260506030143 | 78 | 120 | 4.0 | 6.0 | 0.00 | 0.00 | 0.00 | 78 | 1007.3 |
| 20260506025621 | 78 | 142 | 4.0 | 7.0 | 0.00 | 0.00 | 0.00 | 78 | 1007.1 |
| 20260506025145 | 78 | 134 | 4.0 | 7.0 | 0.00 | 0.00 | 0.00 | 78 | 1007.0 |
| 20260506024658 | 78 | 150 | 4.0 | 6.0 | 0.00 | 0.00 | 0.00 | 77 | 1007.0 |
| 20260506024123 | 78 | 154 | 2.0 | 5.0 | 0.00 | 0.00 | 0.00 | 77 | 1007.0 |
| 20260506023656 | 78 | 142 | 3.0 | 5.0 | 0.00 | 0.00 | 0.00 | 76 | 1006.9 |
| 20260506023121 | 78 | 128 | 1.0 | 4.0 | 0.00 | 0.00 | 0.00 | 76 | 1007.0 |